When you browse on this site, cookies collect data to enhance your experience and personalize the content and advertising you see.
Visit our Privacy Policy to learn more. By continuing to use the site, you agree to this use of cookies and data.
  • In Latvia
  • List of Countries
  • For 7 days
  • Water Temperature
  • Satellite Maps
  • Weather Map
  • Weather Widgets
  • user-avatar
    Login

    Hourly Weather Kandahar

    Today, 18 June, Tuesday

    Time Temperature Precipitation Wind Pressure Humidity
    00:00 +28°C° 0 mm 2 mps 667 mmHg 12%
    01:00 +28°C° 0 mm 2 mps 667 mmHg 13%
    02:00 +27°C° 0 mm 2 mps 667 mmHg 15%
    03:00 +26°C° 0 mm 1 mps 667 mmHg 16%
    04:00 +25°C° 0 mm 1 mps 667 mmHg 18%
    05:00 +27°C° 0 mm 2 mps 668 mmHg 16%
    06:00 +30°C° 0 mm 2 mps 668 mmHg 14%
    07:00 +32°C° 0 mm 2 mps 669 mmHg 12%
    08:00 +35°C° 0 mm 2 mps 669 mmHg 11%
    09:00 +36°C° 0 mm 2 mps 669 mmHg 10%
    10:00 +38°C° 0 mm 2 mps 670 mmHg 9%
    11:00 +39°C° 0 mm 2 mps 669 mmHg 8%
    12:00 +40°C° 0 mm 2 mps 669 mmHg 6%
    13:00 +40°C° 0 mm 2 mps 669 mmHg 5%
    14:00 +41°C° 0 mm 2 mps 668 mmHg 5%
    15:00 +42°C° 0 mm 3 mps 667 mmHg 5%
    16:00 +40°C° 0 mm 3 mps 668 mmHg 5%
    17:00 +40°C° 0 mm 4 mps 667 mmHg 6%
    18:00 +37°C° 0 mm 4 mps 667 mmHg 6%
    19:00 +35°C° 0 mm 4 mps 667 mmHg 6%
    20:00 +34°C° 0 mm 4 mps 667 mmHg 6%
    21:00 +33°C° 0 mm 4 mps 667 mmHg 6%
    22:00 +30°C° 0 mm 3 mps 667 mmHg 6%
    23:00 +29°C° 0 mm 3 mps 667 mmHg 6%

    Tomorrow, 19 June, Wednesday

    Time Temperature Precipitation Wind Pressure Humidity
    00:00 +28°C° 0 mm 2 mps 666 mmHg 7%
    01:00 +27°C° 0 mm 2 mps 666 mmHg 8%
    02:00 +26°C° 0 mm 2 mps 666 mmHg 8%
    03:00 +26°C° 0 mm 2 mps 666 mmHg 9%
    04:00 +25°C° 0 mm 2 mps 666 mmHg 9%
    05:00 +27°C° 0 mm 2 mps 667 mmHg 8%
    06:00 +29°C° 0 mm 2 mps 668 mmHg 8%
    07:00 +32°C° 0 mm 2 mps 669 mmHg 7%
    08:00 +34°C° 0 mm 3 mps 669 mmHg 6%
    09:00 +36°C° 0 mm 3 mps 669 mmHg 6%
    10:00 +37°C° 0 mm 3 mps 670 mmHg 5%
    11:00 +39°C° 0 mm 3 mps 670 mmHg 5%
    12:00 +41°C° 0 mm 4 mps 669 mmHg 4%
    13:00 +42°C° 0 mm 4 mps 669 mmHg 4%
    14:00 +42°C° 0 mm 4 mps 669 mmHg 4%
    15:00 +42°C° 0 mm 4 mps 668 mmHg 4%
    16:00 +42°C° 0 mm 4 mps 668 mmHg 4%
    17:00 +39°C° 0 mm 3 mps 667 mmHg 5%
    18:00 +37°C° 0 mm 3 mps 667 mmHg 6%
    19:00 +34°C° 0 mm 2 mps 667 mmHg 7%
    20:00 +32°C° 0 mm 2 mps 667 mmHg 7%
    21:00 +31°C° 0 mm 2 mps 667 mmHg 8%
    22:00 +29°C° 0 mm 1 mps 667 mmHg 9%
    23:00 +28°C° 0 mm 1 mps 667 mmHg 9%

    Day after tomorrow, 20 June, Thursday

    Time Temperature Precipitation Wind Pressure Humidity
    00:00 +27°C° 0 mm 1 mps 667 mmHg 10%
    01:00 +27°C° 0 mm 1 mps 667 mmHg 10%
    02:00 +26°C° 0 mm 1 mps 667 mmHg 11%
    03:00 +26°C° 0 mm 1 mps 667 mmHg 11%
    04:00 +25°C° 0 mm 1 mps 667 mmHg 11%
    05:00 +28°C° 0 mm 2 mps 668 mmHg 13%
    06:00 +30°C° 0 mm 2 mps 669 mmHg 15%
    07:00 +33°C° 0 mm 3 mps 670 mmHg 17%
    08:00 +35°C° 0 mm 4 mps 670 mmHg 13%
    09:00 +37°C° 0 mm 4 mps 671 mmHg 10%
    10:00 +40°C° 0 mm 4 mps 671 mmHg 7%
    11:00 +41°C° 0 mm 4 mps 671 mmHg 6%
    12:00 +42°C° 0 mm 4 mps 670 mmHg 5%
    13:00 +43°C° 0 mm 3 mps 670 mmHg 4%
    14:00 +43°C° 0 mm 3 mps 669 mmHg 4%
    15:00 +43°C° 0 mm 3 mps 669 mmHg 4%
    16:00 +43°C° 0 mm 3 mps 668 mmHg 4%
    17:00 +39°C° 0 mm 3 mps 668 mmHg 5%
    18:00 +37°C° 0 mm 2 mps 668 mmHg 6%
    19:00 +35°C° 0 mm 2 mps 667 mmHg 7%
    20:00 +32°C° 0 mm 2 mps 667 mmHg 8%
    21:00 +31°C° 0 mm 2 mps 667 mmHg 8%
    22:00 +30°C° 0 mm 1 mps 668 mmHg 9%
    23:00 +29°C° 0 mm 1 mps 667 mmHg 10%

    21 June, Friday

    Time Temperature Precipitation Wind Pressure Humidity
    00:00 +28°C° 0 mm 1 mps 667 mmHg 10%
    01:00 +27°C° 0 mm 1 mps 667 mmHg 11%
    02:00 +27°C° 0 mm 1 mps 667 mmHg 11%
    03:00 +26°C° 0 mm 1 mps 667 mmHg 11%
    04:00 +26°C° 0 mm 1 mps 667 mmHg 11%
    05:00 +28°C° 0 mm 1 mps 668 mmHg 10%
    06:00 +31°C° 0 mm 2 mps 669 mmHg 9%
    07:00 +34°C° 0 mm 2 mps 670 mmHg 7%
    08:00 +36°C° 0 mm 3 mps 670 mmHg 7%
    09:00 +38°C° 0 mm 4 mps 670 mmHg 7%
    10:00 +40°C° 0 mm 5 mps 671 mmHg 7%
    11:00 +41°C° 0 mm 5 mps 670 mmHg 6%
    12:00 +44°C° 0 mm 6 mps 670 mmHg 6%
    13:00 +45°C° 0 mm 6 mps 670 mmHg 5%
    14:00 +45°C° 0 mm 7 mps 669 mmHg 5%
    15:00 +45°C° 0 mm 8 mps 669 mmHg 5%
    16:00 +45°C° 0 mm 8 mps 668 mmHg 5%
    17:00 +41°C° 0 mm 7 mps 668 mmHg 6%
    18:00 +39°C° 0 mm 5 mps 668 mmHg 6%
    19:00 +36°C° 0 mm 3 mps 667 mmHg 7%
    20:00 +35°C° 0 mm 3 mps 667 mmHg 7%
    21:00 +33°C° 0 mm 3 mps 667 mmHg 8%
    22:00 +31°C° 0 mm 3 mps 667 mmHg 8%
    23:00 +30°C° 0 mm 3 mps 667 mmHg 9%

    22 June, Saturday

    Time Temperature Precipitation Wind Pressure Humidity
    00:00 +28°C° 0 mm 2 mps 667 mmHg 10%
    01:00 +27°C° 0 mm 2 mps 666 mmHg 12%
    02:00 +26°C° 0 mm 2 mps 666 mmHg 13%
    03:00 +25°C° 0 mm 2 mps 666 mmHg 14%
    04:00 +24°C° 0 mm 1 mps 667 mmHg 15%
    05:00 +26°C° 0 mm 1 mps 668 mmHg 13%
    06:00 +28°C° 0 mm 1 mps 668 mmHg 12%
    07:00 +31°C° 0 mm 1 mps 669 mmHg 10%
    08:00 +34°C° 0 mm 2 mps 670 mmHg 9%
    09:00 +36°C° 0 mm 2 mps 670 mmHg 8%
    10:00 +38°C° 0 mm 3 mps 670 mmHg 7%
    11:00 +39°C° 0 mm 2 mps 670 mmHg 7%
    12:00 +40°C° 0 mm 2 mps 670 mmHg 6%
    13:00 +41°C° 0 mm 1 mps 670 mmHg 5%
    14:00 +42°C° 0 mm 1 mps 669 mmHg 5%
    15:00 +42°C° 0 mm 1 mps 669 mmHg 5%
    16:00 +43°C° 0 mm 1 mps 668 mmHg 5%
    17:00 +40°C° 0 mm 2 mps 668 mmHg 5%
    18:00 +38°C° 0 mm 2 mps 668 mmHg 6%
    19:00 +35°C° 0 mm 2 mps 667 mmHg 7%
    20:00 +34°C° 0 mm 2 mps 667 mmHg 8%
    21:00 +34°C° 0 mm 3 mps 668 mmHg 8%
    22:00 +33°C° 0 mm 3 mps 668 mmHg 9%
    23:00 +30°C° 0 mm 2 mps 667 mmHg 9%

    23 June, Sunday

    Time Temperature Precipitation Wind Pressure Humidity
    00:00 +29°C° 0 mm 2 mps 667 mmHg 10%
    01:00 +28°C° 0 mm 1 mps 667 mmHg 11%
    02:00 +27°C° 0 mm 1 mps 667 mmHg 11%
    03:00 +27°C° 0 mm 1 mps 667 mmHg 12%
    04:00 +26°C° 0 mm 1 mps 667 mmHg 12%
    05:00 +28°C° 0 mm 1 mps 668 mmHg 12%
    06:00 +31°C° 0 mm 1 mps 669 mmHg 12%
    07:00 +34°C° 0 mm 2 mps 670 mmHg 12%
    08:00 +36°C° 0 mm 2 mps 670 mmHg 12%
    09:00 +38°C° 0 mm 3 mps 670 mmHg 12%
    10:00 +40°C° 0 mm 3 mps 670 mmHg 12%
    11:00 +42°C° 0 mm 4 mps 670 mmHg 10%
    12:00 +43°C° 0 mm 4 mps 670 mmHg 7%
    13:00 +46°C° 0 mm 5 mps 669 mmHg 5%
    14:00 +46°C° 0 mm 5 mps 669 mmHg 4%
    15:00 +46°C° 0 mm 5 mps 668 mmHg 4%
    16:00 +46°C° 0 mm 5 mps 668 mmHg 4%
    17:00 +42°C° 0 mm 4 mps 667 mmHg 5%
    18:00 +38°C° 0 mm 4 mps 667 mmHg 6%
    19:00 +36°C° 0 mm 3 mps 666 mmHg 6%
    20:00 +34°C° 0 mm 2 mps 667 mmHg 7%
    21:00 +32°C° 0 mm 2 mps 667 mmHg 8%
    22:00 +30°C° 0 mm 2 mps 667 mmHg 9%
    23:00 +29°C° 0 mm 2 mps 667 mmHg 10%
    Show more